TimePST,TemperatureF,Dew PointF,Humidity,Sea Level PressureIn,VisibilityMPH,Wind Direction,Wind SpeedMPH,Gust SpeedMPH,PrecipitationIn,Events,Conditions,WindDirDegrees,DateUTC
12:15 AM,44.6,32.0,61,29.85,10.0,NNW,9.2,16.1,N/A,,Clear,330,2013-12-04 08:15:00
12:35 AM,42.8,32.0,66,29.85,10.0,NNW,8.1,-,N/A,,Clear,330,2013-12-04 08:35:00
12:55 AM,42.8,30.2,61,29.86,10.0,NNW,6.9,-,N/A,,Clear,340,2013-12-04 08:55:00
1:15 AM,42.8,30.2,61,29.87,10.0,NNW,8.1,-,N/A,,Clear,340,2013-12-04 09:15:00
1:35 AM,42.8,30.2,61,29.88,10.0,NW,4.6,-,N/A,,Clear,320,2013-12-04 09:35:00
1:55 AM,41.0,30.2,65,29.88,10.0,NW,4.6,-,N/A,,Clear,320,2013-12-04 09:55:00
2:15 AM,41.0,30.2,65,29.89,10.0,NW,5.8,-,N/A,,Clear,310,2013-12-04 10:15:00
2:35 AM,41.0,30.2,65,29.89,10.0,WNW,9.2,-,N/A,,Clear,300,2013-12-04 10:35:00
2:55 AM,41.0,32.0,70,29.89,10.0,WNW,8.1,-,N/A,,Clear,300,2013-12-04 10:55:00
3:15 AM,39.2,32.0,75,29.89,10.0,WNW,8.1,-,N/A,,Clear,300,2013-12-04 11:15:00
3:35 AM,41.0,32.0,70,29.89,10.0,NW,8.1,-,N/A,,Clear,310,2013-12-04 11:35:00
3:55 AM,41.0,30.2,65,29.90,10.0,NW,6.9,-,N/A,,Clear,310,2013-12-04 11:55:00
4:15 AM,41.0,30.2,65,29.90,10.0,NW,6.9,-,N/A,,Clear,310,2013-12-04 12:15:00
4:35 AM,41.0,30.2,65,29.90,10.0,Calm,Calm,-,N/A,,Clear,0,2013-12-04 12:35:00
4:55 AM,41.0,30.2,65,29.90,10.0,WNW,11.5,-,N/A,,Clear,300,2013-12-04 12:55:00
5:15 AM,41.0,28.4,61,29.91,10.0,NNW,11.5,-,N/A,,Clear,330,2013-12-04 13:15:00
5:35 AM,39.2,28.4,65,29.92,10.0,NW,9.2,-,N/A,,Clear,320,2013-12-04 13:35:00
5:55 AM,39.2,28.4,65,29.92,10.0,NNW,6.9,-,N/A,,Clear,330,2013-12-04 13:55:00
6:15 AM,39.2,28.4,65,29.93,10.0,NW,8.1,-,N/A,,Clear,320,2013-12-04 14:15:00
6:35 AM,37.4,28.4,70,29.94,10.0,WNW,5.8,-,N/A,,Clear,290,2013-12-04 14:35:00
6:55 AM,37.4,28.4,70,29.95,10.0,WNW,8.1,-,N/A,,Clear,300,2013-12-04 14:55:00
7:15 AM,35.6,28.4,75,29.96,10.0,SSW,4.6,-,N/A,,Clear,210,2013-12-04 15:15:00
7:35 AM,37.4,28.4,70,29.96,10.0,WSW,4.6,-,N/A,,Clear,240,2013-12-04 15:35:00
7:55 AM,41.0,28.4,61,29.97,10.0,WSW,4.6,-,N/A,,Clear,250,2013-12-04 15:55:00
8:15 AM,41.0,28.4,61,29.98,10.0,SW,3.5,-,N/A,,Clear,230,2013-12-04 16:15:00
8:35 AM,42.8,28.4,57,29.98,10.0,West,4.6,-,N/A,,Clear,280,2013-12-04 16:35:00
8:55 AM,44.6,26.6,49,29.99,10.0,NW,6.9,-,N/A,,Clear,320,2013-12-04 16:55:00
9:15 AM,46.4,26.6,46,29.99,10.0,NW,5.8,-,N/A,,Clear,320,2013-12-04 17:15:00
9:35 AM,50.0,23.0,35,29.99,10.0,NNW,8.1,-,N/A,,Clear,330,2013-12-04 17:35:00
9:55 AM,51.8,21.2,30,29.99,10.0,NW,8.1,-,N/A,,Clear,320,2013-12-04 17:55:00
10:15 AM,51.8,21.2,30,29.99,10.0,NW,10.4,16.1,N/A,,Clear,310,2013-12-04 18:15:00
10:35 AM,53.6,21.2,28,29.99,10.0,NW,10.4,-,N/A,,Clear,310,2013-12-04 18:35:00
10:55 AM,53.6,19.4,26,29.98,10.0,NW,13.8,20.7,N/A,,Clear,320,2013-12-04 18:55:00
11:15 AM,53.6,17.6,24,29.98,10.0,NW,17.3,21.9,N/A,,Clear,310,2013-12-04 19:15:00
11:35 AM,55.4,15.8,21,29.97,10.0,WNW,13.8,19.6,N/A,,Clear,300,2013-12-04 19:35:00
11:55 AM,55.4,12.2,18,29.95,10.0,NW,13.8,20.7,N/A,,Clear,310,2013-12-04 19:55:00
12:15 PM,55.4,12.2,18,29.95,10.0,NW,15.0,-,N/A,,Clear,320,2013-12-04 20:15:00
12:35 PM,55.4,12.2,18,29.93,10.0,NW,15.0,20.7,N/A,,Clear,310,2013-12-04 20:35:00
12:55 PM,55.4,14.0,20,29.92,10.0,NW,13.8,23.0,N/A,,Clear,320,2013-12-04 20:55:00
1:15 PM,55.4,14.0,20,29.92,10.0,NW,17.3,26.5,N/A,,Clear,310,2013-12-04 21:15:00
1:35 PM,57.2,12.2,17,29.91,10.0,NW,16.1,24.2,N/A,,Clear,320,2013-12-04 21:35:00
1:55 PM,57.2,14.0,18,29.91,10.0,NW,17.3,26.5,N/A,,Clear,320,2013-12-04 21:55:00
2:15 PM,57.2,14.0,18,29.90,10.0,NW,17.3,21.9,N/A,,Clear,310,2013-12-04 22:15:00
2:35 PM,55.4,14.0,20,29.91,10.0,NNW,15.0,24.2,N/A,,Clear,330,2013-12-04 22:35:00
2:55 PM,55.4,21.2,26,29.90,10.0,NW,16.1,20.7,N/A,,Clear,310,2013-12-04 22:55:00
3:15 PM,53.6,23.0,30,29.90,10.0,NW,18.4,-,N/A,,Clear,310,2013-12-04 23:15:00
3:35 PM,53.6,24.8,33,29.90,10.0,NW,12.7,17.3,N/A,,Clear,310,2013-12-04 23:35:00
3:55 PM,51.8,26.6,38,29.90,10.0,NW,16.1,21.9,N/A,,Clear,310,2013-12-04 23:55:00
4:15 PM,51.8,26.6,38,29.91,10.0,NW,11.5,-,N/A,,Clear,320,2013-12-05 00:15:00
4:35 PM,50.0,26.6,40,29.91,10.0,NW,11.5,-,N/A,,Clear,320,2013-12-05 00:35:00
4:55 PM,48.2,26.6,43,29.92,10.0,NW,9.2,16.1,N/A,,Clear,320,2013-12-05 00:55:00
5:15 PM,46.4,26.6,46,29.93,10.0,WNW,6.9,-,N/A,,Clear,300,2013-12-05 01:15:00
5:35 PM,44.6,28.4,53,29.94,10.0,West,6.9,-,N/A,,Clear,280,2013-12-05 01:35:00
5:55 PM,42.8,28.4,57,29.94,10.0,SW,4.6,-,N/A,,Clear,220,2013-12-05 01:55:00
6:15 PM,42.8,28.4,57,29.95,10.0,SSW,4.6,-,N/A,,Clear,210,2013-12-05 02:15:00
6:35 PM,42.8,28.4,57,29.95,10.0,SW,4.6,-,N/A,,Clear,220,2013-12-05 02:35:00
6:55 PM,42.8,28.4,57,29.96,10.0,SW,4.6,-,N/A,,Clear,230,2013-12-05 02:55:00
7:15 PM,42.8,28.4,57,29.96,10.0,West,3.5,-,N/A,,Clear,260,2013-12-05 03:15:00
7:35 PM,41.0,28.4,61,29.97,10.0,WSW,3.5,-,N/A,,Clear,240,2013-12-05 03:35:00
7:55 PM,41.0,28.4,61,29.97,10.0,North,3.5,-,N/A,,Clear,10,2013-12-05 03:55:00
8:15 PM,37.4,28.4,70,29.98,10.0,NE,3.5,-,N/A,,Clear,40,2013-12-05 04:15:00
8:35 PM,37.4,28.4,70,29.98,10.0,Calm,Calm,-,N/A,,Clear,0,2013-12-05 04:35:00
8:55 PM,35.6,28.4,75,29.98,10.0,ENE,5.8,-,N/A,,Clear,60,2013-12-05 04:55:00
9:15 PM,35.6,28.4,75,29.99,10.0,ENE,3.5,-,N/A,,Clear,60,2013-12-05 05:15:00
9:35 PM,35.6,28.4,75,29.99,10.0,East,3.5,-,N/A,,Clear,80,2013-12-05 05:35:00
9:55 PM,33.8,28.4,81,29.99,10.0,East,3.5,-,N/A,,Clear,80,2013-12-05 05:55:00
10:15 PM,32.0,28.4,87,29.99,10.0,NNE,4.6,-,N/A,,Clear,20,2013-12-05 06:15:00
10:35 PM,32.0,28.4,87,30.00,10.0,ENE,4.6,-,N/A,,Clear,60,2013-12-05 06:35:00
10:55 PM,32.0,28.4,87,29.99,10.0,ENE,5.8,-,N/A,,Clear,60,2013-12-05 06:55:00
11:15 PM,32.0,28.4,87,29.99,10.0,NE,4.6,-,N/A,,Clear,50,2013-12-05 07:15:00
11:35 PM,32.0,28.4,87,29.99,10.0,ENE,3.5,-,N/A,,Clear,60,2013-12-05 07:35:00
11:55 PM,32.0,26.6,80,29.99,10.0,ENE,3.5,-,N/A,,Clear,60,2013-12-05 07:55:00